sat.trackr.live / text

‹ back to catalog

STARLINK-2130

NORAD 47405 · 2021-005BJ

PAYLOAD ACTIVE UNKNOWN

§ Identity

Operator
Country
US
Launch date
2021-01-20
Launch site
AFETR
Launch vehicle
Mass (kg)
RCS (m²)

Purposes: comms

External: N2YO · Heavens-Above · Gunter

§ Orbital elements

Epoch: 2026-09-19T13:50:56.068512Z

Period
94.01 min
Inclination
53.1599°
Eccentricity
0.0001531
Mean motion
15.31696797 rev/d
Perigee alt
469.7 km
Apogee alt
471.8 km
Semi-major
6,848.9 km
B*
2.4922e-5
RAAN
240.1107°
Arg perigee
80.2363°
Mean anomaly
279.8812°
Rev number
31,273

§ Raw data

STARLINK-21301 47405U 21005BJ  26262.57703783  .00000408  00000+0  24922-4 0  99902 47405  53.1599 240.1107 0001531  80.2363 279.8812 15.31696797312738

JSON: /api/v1/satellites/47405 · /tle

For live sub-satellite position, see the globe view (requires WebGL).

§ Visibility from observer

Set your observer location to see the next 7 days of passes ≥ 10°. The values pass through the URL so the page stays shareable.

No JS? Fill the form by hand. The geolocation button needs JavaScript.